When you browse on this site, cookies collect data to enhance your experience and personalize the content and advertising you see.
Visit our Privacy Policy to learn more. By continuing to use the site, you agree to this use of cookies and data.
  • In Schweiz
  • Länderverzeichnis
  • Für 7 Tage
  • Wassertemperatur
  • Satellitenkarten
  • Wetterkarte
  • Widgets
  • user-avatar
    Anmelden

    Stündliche Wetter Plavneve

    Heute, 21 Februar, Donnerstag

    Zeit Temperatur Niederschläge Wind Luftdruck Luftfeuchtigkeit
    00:00 +4°C° 0 mm 3 m/S 761 mmHg 79%
    01:00 +3°C° 0 mm 4 m/S 761 mmHg 80%
    02:00 +3°C° 0 mm 4 m/S 761 mmHg 81%
    03:00 +3°C° 0 mm 4 m/S 762 mmHg 81%
    04:00 +1°C° 0 mm 4 m/S 762 mmHg 81%
    05:00 +1°C° 0 mm 5 m/S 762 mmHg 81%
    06:00 +1°C° 0 mm 5 m/S 762 mmHg 80%
    07:00 +2°C° 0 mm 5 m/S 762 mmHg 79%
    08:00 +2°C° 0 mm 6 m/S 762 mmHg 78%
    09:00 +3°C° 0 mm 6 m/S 763 mmHg 71%
    10:00 +4°C° 0 mm 7 m/S 763 mmHg 64%
    11:00 +5°C° 0 mm 8 m/S 763 mmHg 57%
    12:00 +5°C° 0 mm 8 m/S 763 mmHg 54%
    13:00 +6°C° 0 mm 8 m/S 763 mmHg 51%
    14:00 +6°C° 0 mm 8 m/S 763 mmHg 49%
    15:00 +6°C° 0 mm 8 m/S 763 mmHg 52%
    16:00 +5°C° 0 mm 7 m/S 763 mmHg 55%
    17:00 +5°C° 0 mm 7 m/S 763 mmHg 59%
    18:00 +4°C° 0 mm 6 m/S 763 mmHg 62%
    19:00 +4°C° 0 mm 4 m/S 763 mmHg 66%
    20:00 +4°C° 0 mm 3 m/S 763 mmHg 70%
    21:00 +4°C° 0 mm 3 m/S 763 mmHg 73%
    22:00 +4°C° 0 mm 3 m/S 763 mmHg 76%
    23:00 +4°C° 0 mm 3 m/S 763 mmHg 79%

    Morgen, 22 Februar, Freitag

    Zeit Temperatur Niederschläge Wind Luftdruck Luftfeuchtigkeit
    00:00 +5°C° 0.1 mm 2 m/S 763 mmHg 81%
    01:00 +5°C° 0.1 mm 2 m/S 763 mmHg 83%
    02:00 +5°C° 0.1 mm 2 m/S 762 mmHg 85%
    03:00 +5°C° 0.2 mm 2 m/S 762 mmHg 83%
    04:00 +4°C° 0.2 mm 3 m/S 761 mmHg 81%
    05:00 +4°C° 0.2 mm 3 m/S 760 mmHg 80%
    06:00 +4°C° 0.5 mm 3 m/S 760 mmHg 79%
    07:00 +5°C° 0.5 mm 2 m/S 760 mmHg 78%
    08:00 +5°C° 0.5 mm 2 m/S 759 mmHg 76%
    09:00 +5°C° 0.4 mm 2 m/S 759 mmHg 75%
    10:00 +5°C° 0.4 mm 2 m/S 759 mmHg 74%
    11:00 +5°C° 0.4 mm 2 m/S 759 mmHg 73%
    12:00 +3°C° 0.6 mm 4 m/S 759 mmHg 78%
    13:00 -1°C° 0.6 mm 7 m/S 760 mmHg 82%
    14:00 -4°C° 0.6 mm 9 m/S 760 mmHg 87%
    15:00 -5°C° 0.5 mm 9 m/S 761 mmHg 85%
    16:00 -6°C° 0.5 mm 9 m/S 761 mmHg 83%
    17:00 -8°C° 0.5 mm 9 m/S 762 mmHg 81%
    18:00 -9°C° 0 mm 9 m/S 763 mmHg 77%
    19:00 -8°C° 0 mm 8 m/S 764 mmHg 72%
    20:00 -10°C° 0 mm 8 m/S 765 mmHg 68%
    21:00 -10°C° 0 mm 8 m/S 766 mmHg 68%
    22:00 -11°C° 0 mm 7 m/S 766 mmHg 67%
    23:00 -11°C° 0 mm 7 m/S 767 mmHg 67%

    übermorgen, 23 Februar, Samstag

    Zeit Temperatur Niederschläge Wind Luftdruck Luftfeuchtigkeit
    00:00 -11°C° 0 mm 7 m/S 767 mmHg 67%
    01:00 -11°C° 0 mm 7 m/S 767 mmHg 67%
    02:00 -11°C° 0 mm 7 m/S 767 mmHg 67%
    03:00 -11°C° 0 mm 7 m/S 768 mmHg 66%
    04:00 -12°C° 0 mm 7 m/S 768 mmHg 66%
    05:00 -12°C° 0 mm 8 m/S 768 mmHg 66%
    06:00 -12°C° 0 mm 8 m/S 769 mmHg 66%
    07:00 -12°C° 0 mm 8 m/S 769 mmHg 66%
    08:00 -12°C° 0 mm 8 m/S 770 mmHg 66%
    09:00 -11°C° 0 mm 8 m/S 770 mmHg 64%
    10:00 -10°C° 0 mm 8 m/S 770 mmHg 62%
    11:00 -10°C° 0 mm 8 m/S 771 mmHg 59%
    12:00 -8°C° 0 mm 8 m/S 771 mmHg 60%
    13:00 -8°C° 0 mm 8 m/S 771 mmHg 61%
    14:00 -8°C° 0 mm 8 m/S 771 mmHg 62%
    15:00 -8°C° 0 mm 7 m/S 771 mmHg 63%
    16:00 -8°C° 0 mm 7 m/S 771 mmHg 65%
    17:00 -8°C° 0 mm 7 m/S 771 mmHg 66%
    18:00 -8°C° 0.1 mm 7 m/S 772 mmHg 68%
    19:00 -9°C° 0.1 mm 7 m/S 772 mmHg 69%
    20:00 -9°C° 0.1 mm 7 m/S 772 mmHg 71%
    21:00 -9°C° 0 mm 6 m/S 773 mmHg 71%
    22:00 -10°C° 0 mm 6 m/S 773 mmHg 71%
    23:00 -10°C° 0 mm 6 m/S 773 mmHg 71%

    24 Februar, Sonntag

    Zeit Temperatur Niederschläge Wind Luftdruck Luftfeuchtigkeit
    00:00 -10°C° 0 mm 5 m/S 773 mmHg 72%
    01:00 -10°C° 0 mm 5 m/S 773 mmHg 73%
    02:00 -11°C° 0 mm 5 m/S 772 mmHg 74%
    03:00 -11°C° 0 mm 5 m/S 772 mmHg 75%
    04:00 -11°C° 0 mm 5 m/S 772 mmHg 76%
    05:00 -11°C° 0 mm 5 m/S 772 mmHg 77%
    06:00 -11°C° 0 mm 5 m/S 772 mmHg 76%
    07:00 -11°C° 0 mm 5 m/S 772 mmHg 76%
    08:00 -11°C° 0 mm 5 m/S 772 mmHg 76%
    09:00 -10°C° 0 mm 5 m/S 772 mmHg 73%
    10:00 -8°C° 0 mm 5 m/S 772 mmHg 70%
    11:00 -7°C° 0 mm 5 m/S 773 mmHg 67%
    12:00 -7°C° 0 mm 5 m/S 772 mmHg 66%
    13:00 -7°C° 0 mm 5 m/S 772 mmHg 65%
    14:00 -6°C° 0 mm 5 m/S 771 mmHg 65%
    15:00 -6°C° 0 mm 5 m/S 771 mmHg 65%
    16:00 -5°C° 0 mm 4 m/S 771 mmHg 65%
    17:00 -5°C° 0 mm 4 m/S 771 mmHg 65%
    18:00 -5°C° 0 mm 3 m/S 771 mmHg 69%
    19:00 -5°C° 0 mm 2 m/S 771 mmHg 72%
    20:00 -5°C° 0 mm 2 m/S 771 mmHg 76%
    21:00 -5°C° 0 mm 2 m/S 771 mmHg 75%
    22:00 -5°C° 0 mm 2 m/S 770 mmHg 75%
    23:00 -5°C° 0 mm 2 m/S 770 mmHg 75%

    25 Februar, Montag

    Zeit Temperatur Niederschläge Wind Luftdruck Luftfeuchtigkeit
    00:00 -5°C° 0 mm 2 m/S 770 mmHg 77%
    01:00 -5°C° 0 mm 2 m/S 769 mmHg 79%
    02:00 -5°C° 0 mm 2 m/S 769 mmHg 81%
    03:00 -5°C° 0 mm 2 m/S 768 mmHg 82%
    04:00 -4°C° 0 mm 2 m/S 768 mmHg 83%
    05:00 -4°C° 0 mm 2 m/S 767 mmHg 83%
    06:00 -4°C° 0 mm 2 m/S 767 mmHg 83%
    07:00 -5°C° 0 mm 3 m/S 766 mmHg 83%
    08:00 -4°C° 0 mm 3 m/S 766 mmHg 83%
    09:00 -4°C° 0.1 mm 3 m/S 766 mmHg 80%
    10:00 -2°C° 0.1 mm 3 m/S 765 mmHg 77%
    11:00 -1°C° 0.1 mm 3 m/S 765 mmHg 74%
    12:00 0°C° 0 mm 3 m/S 764 mmHg 73%
    13:00 0°C° 0 mm 3 m/S 764 mmHg 71%
    14:00 0°C° 0 mm 4 m/S 763 mmHg 70%
    15:00 0°C° 0 mm 3 m/S 763 mmHg 73%
    16:00 0°C° 0 mm 3 m/S 763 mmHg 75%
    17:00 0°C° 0 mm 3 m/S 762 mmHg 78%
    18:00 0°C° 0 mm 3 m/S 762 mmHg 82%
    19:00 -1°C° 0 mm 3 m/S 762 mmHg 86%
    20:00 -1°C° 0 mm 3 m/S 762 mmHg 90%
    21:00 -2°C° 0.2 mm 4 m/S 762 mmHg 89%
    22:00 -1°C° 0.2 mm 5 m/S 762 mmHg 88%
    23:00 -2°C° 0.2 mm 6 m/S 762 mmHg 87%

    26 Februar, Dienstag

    Zeit Temperatur Niederschläge Wind Luftdruck Luftfeuchtigkeit
    00:00 -2°C° 0 mm 7 m/S 762 mmHg 85%
    01:00 -2°C° 0 mm 7 m/S 761 mmHg 83%
    02:00 -3°C° 0 mm 7 m/S 761 mmHg 80%
    03:00 -4°C° 0 mm 8 m/S 761 mmHg 81%
    04:00 -4°C° 0 mm 8 m/S 761 mmHg 81%
    05:00 -5°C° 0 mm 8 m/S 761 mmHg 82%
    06:00 -5°C° 0 mm 8 m/S 761 mmHg 81%
    07:00 -3°C° 0 mm 7 m/S 761 mmHg 80%
    08:00 -3°C° 0 mm 7 m/S 761 mmHg 79%
    09:00 -2°C° 0 mm 7 m/S 761 mmHg 78%
    10:00 -1°C° 0 mm 6 m/S 760 mmHg 77%
    11:00 +1°C° 0 mm 6 m/S 760 mmHg 76%
    12:00 +1°C° 0.1 mm 6 m/S 759 mmHg 76%
    13:00 0°C° 0.1 mm 7 m/S 759 mmHg 75%
    14:00 0°C° 0.1 mm 7 m/S 759 mmHg 75%
    15:00 +1°C° 0 mm 6 m/S 758 mmHg 76%
    16:00 +1°C° 0 mm 6 m/S 758 mmHg 77%
    17:00 +1°C° 0 mm 5 m/S 758 mmHg 77%
    18:00 0°C° 0 mm 5 m/S 758 mmHg 80%
    19:00 0°C° 0 mm 5 m/S 757 mmHg 83%
    20:00 -1°C° 0 mm 4 m/S 757 mmHg 85%
    21:00 -1°C° 0 mm 4 m/S 756 mmHg 86%
    22:00 -1°C° 0 mm 4 m/S 756 mmHg 87%
    23:00 -1°C° 0 mm 4 m/S 755 mmHg 88%
    Mehr zeigen